Portada
METAR-TAF:

METAR-TAF

Aeroports :

St. Charles County Airport (Smart Field)

St. Charles, Missouri, Estats Units d'Amèrica

latitud: 38-55-50N, longitud: 090-25-57W, altitud: 133 m

Observació

L'informe es va fer fa 47 minuts, a les 00:54 UTC
Vent 7 kt del Sud
Temperatura 32°C
Humitat 56%
Pressió 1010 hPa
Visibilitat: 16.1 km
Cel clar

METAR: KSET 250054Z AUTO 17007KT 10SM CLR 32/22 A2983 RMK AO2 SLP094 T03220222

Hora: 20:41 (01:41 UTC)


TAF: manca

Observacions i pronòstics meteorològics de més de 4000 aeroports (METAR i TAF).

Les estacions disponibles són els punts grocs i vermells al mapa.

Posi el ratolí al punt desitjat per veure el nom de l'estació.

Feu clic per veure les observacions i els pronòstics meteorològics.

Per canviar el mapa: feu clic els botons verds amb una creu de color negre per apropar; al botó verd amb un guió per allunyar la imatge; o en les fletxes verdes per a mapes adjacents.


METAR-TAF: